星链-32110 (STARLINK-32110 )

导读

STARLINK-32110是美国太空探索技术公司(SpaceX)星链星座的组网卫星,于2024年6月19日发射入轨,属于星链第二代低轨卫星网络的组成部分。星链项目旨在构建全球覆盖的卫星互联网星座,该卫星的成功入轨,进一步扩充了星链低轨通信卫星的组网规模,推进了全球无缝宽带覆盖的部署进程。

基本信息
目录编号:
60078
目录名称:
STARLINK-32110
国际标识:
2024-113V
轨道中心:
EARTH
卫星名称:
星链-32110
卫星全名:
星链-32110 (STARLINK-32110 )
卫星状态:
已陨落 最后检测时间 2024-07-12
发射日期:
2024-06-19 UTC
国别 :
美国 (US)
星等 :
--
该卫星已列入 空间交会检测服务 Space Conjunction Data Service (SCDS) ,当前飞行风险评估等级: 无高风险
轨道信息
数据来源 国际轨道数据
星历时间: 2024-07-12T09:06:44+0800
轨道信息已过期792天
半长轴: 6534.378km
偏心率: 0.0012052
轨道倾角: 53.151°
近地点辐角 316.718°
升交点赤经 295.374°
平近点角 160.315°
近地点: 148.367km
远地点: 164.119km
周期: 87.612分钟
每日圈数: 16.436013
详细信息
固有亮度:
5
最大亮度:
1.5
卫星平台:
Starlink v2.0 mini
覆盖范围:
全球
运营商:
太空探索技术公司
运营商所在国:
美国
制造商(研发单位):
太空探索技术公司
制造商所在国:
美国
使用方式:
暂无
卫星简介
星链(Starlink)计划是由太空探索技术公司(SpaceX)提出的一个巨型低轨卫星互联网星座项目,计划在2019年至2024年间在太空搭建由约1.2万颗卫星组成的“星链”网络,其中1584颗将部署在地球上空550千米处的近地轨道,并从2020年开始工作。该卫星仍在工作。
与全量物体交会距离演化趋势
与全量物体交会风险概率演化趋势